Tracking 31027 objects as of 19-Jul-2025
HD Live streaming from Space Station
objects crossing your sky now

STARLINK-6064

Track STARLINK-6064 now!
10-day predictions
STARLINK-6064 is classified as:


NORAD ID: 56805
Int'l Code: 2023-078AQ
Perigee: 576.9 km
Apogee: 581.5 km
Inclination: 70.0 °
Period: 96.1 minutes
Semi major axis: 6950 km
RCS: Unknown
Launch date: May 31, 2023
Source: United States (US)
Launch site: AIR FORCE WESTERN TEST RANGE (AFWTR)
Your satellite tracking list
KORSAT 7
Track 1 satellite(s)




NASA's NSSDC Master Catalog

Two Line Element Set (TLE):
1 56805U 23078AQ  25199.82283615 -.00000518  00000-0 -35592-4 0  9999
2 56805  69.9991 194.0668 0003275 268.7076  91.3708 14.98327158118406
Source of the keplerian elements: AFSPC